Flag for Belgium Weather past 2 weeks in Mons, Belgium

Now
66 °F

Broken clouds.


Feels Like: 66 °F
Forecast: 55 / 64 °F
Wind: 6 mph from Southwest

Location: Chievres

Current Time: Jul 7, 2015 at 9:06:17 AM

Latest Report: Jul 7, 2015 at 8:25 AM


Visibility: N/A

Pressure: 29.89 "Hg

Humidity: 64%

Dew point: 54 °F

Location of MonsLocation

Historic Weather in Mons — Graph

°F

Mons temperature yesterday

Maximum temperature yesterday: 79 °F (at 5:25 PM)
Minimum temperature yesterday: 50 °F (at 5:25 AM)
Average temperature yesterday: 66 °F

Past Weeks' High & Low Weather Summary

 TemperatureHumidityPressure
High93 °F (Jul 1, 4:25 PM)100% (Jun 22, 6:55 PM)30.27 "Hg (Jun 22, 6:55 PM)
Low45 °F (Jun 24, 3:25 AM)28% (Jul 1, 5:25 PM)29.71 "Hg (Jun 22, 7:55 PM)
Average67 °F70%30.09 "Hg
* Reported Jun 22 9:55 AM — Jul 7 7:25 AM, Mons, Weather by CustomWeather, © 2015

Note: Actual official high and low records may vary slightly from our data, if they occured in-between our weather recording intervals... More about our weather records

Advertising

Mons weather history for previous 24 hours

 ConditionsComfort  
Time TempWeatherWind HumidityBarometerVisibility
7:25 AM
Tue, Jul 7
63 °FPartly sunny.2 mph77%29.89 "HgN/A
6:55 AM63 °FPartly sunny.2 mph73%29.89 "HgN/A
6:25 AM61 °FPassing clouds.2 mph72%29.89 "HgN/A
5:55 AM59 °FPassing clouds.2 mph77%29.92 "HgN/A
5:25 AM59 °FPassing clouds.2 mph77%29.92 "HgN/A
4:55 AM61 °FPassing clouds.2 mph72%29.92 "HgN/A
4:25 AM59 °FCool.3 mph77%29.92 "HgN/A
3:55 AM61 °FCool.5 mph77%29.92 "HgN/A
3:25 AM59 °FCool.3 mph82%29.95 "Hg6 mi
2:55 AM59 °FCool.5 mph82%29.95 "HgN/A
2:25 AM59 °FCool.5 mph82%29.98 "HgN/A
1:55 AM59 °FCool.6 mph82%29.98 "HgN/A
1:25 AM61 °FCool.7 mph83%29.98 "HgN/A
12:55 AM61 °FCool.7 mph83%30.01 "HgN/A
12:25 AM61 °FCool.7 mph83%30.01 "HgN/A
11:55 PM
Mon, Jul 6
63 °FMild.5 mph77%30.01 "HgN/A
11:25 PM64 °FMild.5 mph73%30.04 "HgN/A
10:55 PM64 °FMild.5 mph78%30.04 "HgN/A
10:25 PM68 °FMild.3 mph69%30.04 "HgN/A
9:55 PM70 °FMild.3 mph64%30.04 "HgN/A
9:25 PM73 °FMild.3 mph57%30.04 "HgN/A
8:55 PM73 °FMild.3 mph57%30.04 "HgN/A
8:25 PM77 °FWarm.1 mph47%30.04 "HgN/A
7:55 PM79 °FWarm.2 mph45%30.07 "HgN/A
7:25 PM79 °FPleasantly warm.3 mph39%30.07 "HgN/A
6:55 PM77 °FWarm.2 mph42%30.07 "HgN/A
6:25 PM79 °FPleasantly warm.2 mph39%30.09 "HgN/A
5:55 PM79 °FPleasantly warm.5 mph37%30.09 "HgN/A
5:25 PM79 °FPassing clouds.5 mph39%30.09 "HgN/A
4:55 PM77 °FPassing clouds.7 mph39%30.12 "HgN/A
4:25 PM77 °FScattered clouds.8 mph42%30.12 "HgN/A
3:55 PM73 °FPartly sunny.8 mph50%30.12 "HgN/A
3:25 PM73 °FPartly sunny.6 mph47%30.12 "HgN/A
2:55 PM73 °FPartly sunny.7 mph47%30.15 "HgN/A
2:25 PM73 °FPartly sunny.7 mph47%30.15 "HgN/A
1:55 PM72 °FPartly sunny.8 mph50%30.15 "HgN/A
1:25 PM73 °FScattered clouds.9 mph50%30.15 "HgN/A
12:55 PM72 °FPartly sunny.7 mph53%30.18 "HgN/A
12:25 PM72 °FPassing clouds.8 mph53%30.18 "HgN/A
11:55 AM70 °FMild.8 mph53%30.18 "HgN/A
11:25 AM70 °FScattered clouds.8 mph57%30.18 "HgN/A
10:55 AM68 °FPassing clouds.7 mph60%30.18 "HgN/A
10:25 AM66 °FPartly sunny.7 mph64%30.21 "HgN/A
9:55 AM64 °FPartly sunny.7 mph64%30.21 "HgN/A
9:25 AM63 °FPartly sunny.8 mph77%30.21 "HgN/A
Weather by CustomWeather, © 2015

See weather overviewHow to use our weather pages